GW0888 Weather Reports


time (UTC)temp
C
wind
direction
speed
KPH
gust
KPH
rain 1hr
cm
rain 24hr
cm
rain mn
cm
humidity
%
barometer
mb
20260903101554 22 341 0.0 0.0 0.00 0.00 0.00 90 1016.1
20260903100051 23 341 0.0 1.6 0.00 0.00 0.00 90 1016.0
20260903094620 23 341 0.0 1.6 0.00 0.00 0.00 90 1015.8
20260903093027 23 279 0.0 1.6 0.00 0.00 0.00 90 1016.0
20260903091526 23 305 0.0 3.2 0.00 0.00 0.00 90 1016.1
20260903090023 23 305 0.0 0.0 0.00 0.00 0.00 90 1016.0
20260903084533 23 305 0.0 1.6 0.00 0.00 0.00 90 1015.8
20260903083012 23 305 0.0 3.2 0.00 0.00 0.00 90 1015.7
20260903081508 23 306 0.0 1.6 0.00 0.00 0.00 90 1015.8
20260903080007 23 329 0.0 1.6 0.00 0.00 0.00 90 1015.8
20260903074508 23 329 0.0 1.6 0.00 0.00 0.00 90 1015.8
20260903073006 23 329 0.0 1.6 0.00 0.00 0.00 90 1015.7
20260903071535 24 298 0.0 3.2 0.00 0.00 0.00 90 1015.6
20260903070032 24 331 0.0 1.6 0.00 0.00 0.00 89 1015.7
20260903064501 24 331 0.0 0.0 0.00 0.00 0.00 89 1015.8
20260903063108 24 331 0.0 0.0 0.00 0.00 0.00 89 1015.7
20260903061556 24 331 0.0 1.6 0.00 0.00 0.00 89 1015.7
20260903060054 24 331 0.0 1.6 0.00 0.00 0.00 89 1015.6
20260903054557 25 331 0.0 1.6 0.00 0.00 0.00 89 1015.6
20260903053052 25 316 0.0 1.6 0.00 0.00 0.00 89 1015.6
20260903051549 25 324 0.0 1.6 0.00 0.00 0.00 88 1015.6
20260903050048 25 321 0.0 1.6 0.00 0.00 0.00 88 1015.5
20260903044549 25 344 0.0 1.6 0.00 0.00 0.00 88 1015.4
20260903043045 25 344 0.0 1.6 0.00 0.00 0.00 88 1015.4
20260903041546 25 344 0.0 1.6 0.00 0.00 0.00 88 1015.4
20260903040040 25 344 0.0 1.6 0.00 0.00 0.00 87 1015.5
20260903034539 25 313 0.0 1.6 0.00 0.00 0.00 87 1015.6
20260903033037 26 300 0.0 1.6 0.00 0.00 0.00 87 1015.5
20260903031536 26 300 0.0 3.2 0.00 0.00 0.00 86 1015.6
20260903030031 26 344 0.0 1.6 0.00 0.00 0.00 86 1015.6
20260903024528 26 312 0.0 0.0 0.00 0.00 0.00 85 1015.7
20260903023031 26 312 0.0 1.6 0.00 0.00 0.00 85 1015.6
20260903021526 26 327 0.0 1.6 0.00 0.00 0.00 84 1015.6
20260903020052 27 317 0.0 1.6 0.00 0.00 0.00 83 1015.6
20260903014524 27 329 0.0 1.6 0.00 0.00 0.00 82 1015.5
20260903013023 28 328 0.0 1.6 0.00 0.00 0.00 81 1015.5
20260903011522 28 295 0.0 1.6 0.00 0.00 0.00 78 1015.3
20260903010021 28 295 0.0 3.2 0.00 0.00 0.00 77 1015.0
20260903004520 29 295 0.0 3.2 0.00 0.00 0.00 76 1014.9
20260903003020 30 286 0.0 3.2 0.00 0.00 0.00 74 1014.8
20260903001518 30 298 1.6 4.8 0.00 0.00 0.00 72 1014.7
20260903000018 31 255 0.0 3.2 0.00 0.00 0.00 69 1014.7
20260902234517 32 283 0.0 4.8 0.00 0.00 0.00 66 1014.6
20260902233017 33 238 1.6 4.8 0.00 0.00 0.00 64 1014.7
20260902231513 33 260 0.0 3.2 0.00 0.00 0.00 60 1014.7
20260902230013 34 234 0.0 4.8 0.00 0.00 0.00 56 1014.8
20260902224514 35 175 0.0 3.2 0.00 0.00 0.00 53 1014.8
20260902223011 35 251 0.0 11.3 0.00 0.00 0.00 53 1014.8
20260902221516 35 267 3.2 11.3 0.00 0.00 0.00 52 1014.8
20260902220008 35 213 0.0 8.0 0.00 0.00 0.00 50 1014.8
20260902214506 35 305 1.6 6.4 0.00 0.00 0.00 50 1014.9
20260902213006 36 82 0.0 11.3 0.00 0.00 0.00 49 1014.9
20260902211503 36 262 3.2 12.9 0.00 0.00 0.00 48 1014.9
20260902210002 36 215 4.8 16.1 0.00 0.00 0.00 49 1015.1
20260902204500 36 228 6.4 16.1 0.00 0.00 0.00 50 1015.1
20260902203058 36 231 3.2 9.7 0.00 0.00 0.00 50 1015.4
20260902201557 36 253 1.6 16.1 0.00 0.00 0.00 50 1015.6
20260902200053 36 252 1.6 16.1 0.00 0.00 0.00 49 1015.7
20260902194557 36 244 3.2 11.3 0.00 0.00 0.00 50 1015.8
20260902193049 36 238 6.4 12.9 0.00 0.00 0.00 50 1016.0
20260902191555 36 257 11.3 20.9 0.00 0.00 0.00 52 1016.0
20260902190043 35 142 4.8 9.7 0.00 0.00 0.00 53 1016.1
20260902184541 35 200 3.2 8.0 0.00 0.00 0.00 51 1016.2
20260902183055 35 229 0.0 6.4 0.00 0.00 0.00 51 1016.4
20260902181540 36 230 3.2 12.9 0.00 0.00 0.00 50 1016.5
20260902180137 35 229 6.4 11.3 0.00 0.00 0.00 53 1016.6
20260902174536 35 153 1.6 3.2 0.00 0.00 0.00 53 1016.8
20260902173050 35 231 3.2 8.0 0.00 0.00 0.00 52 1017.1
20260902171535 35 270 3.2 11.3 0.00 0.00 0.00 51 1017.3
20260902170030 35 313 1.6 6.4 0.00 0.00 0.00 52 1017.4
20260902164529 33 281 3.2 8.0 0.00 0.00 0.00 57 1017.7
20260902163027 34 233 3.2 11.3 0.00 0.00 0.00 56 1018.0
20260902161529 35 146 1.6 8.0 0.00 0.00 0.00 54 1018.1
20260902160018 35 279 3.2 11.3 0.00 0.00 0.00 56 1018.3
20260902154524 35 267 3.2 12.9 0.00 0.00 0.00 58 1018.3
20260902153011 35 251 9.7 14.5 0.00 0.00 0.00 56 1018.4
20260902151507 33 271 4.8 11.3 0.00 0.00 0.00 59 1018.4
20260902150052 33 254 6.4 14.5 0.00 0.00 0.00 62 1018.3
20260902144553 32 194 1.6 6.4 0.00 0.00 0.00 65 1018.2
20260902143043 31 208 3.2 11.3 0.00 0.00 0.00 66 1018.2
20260902141539 31 265 0.0 6.4 0.00 0.00 0.00 69 1018.2
20260902140039 30 317 0.0 4.8 0.00 0.00 0.00 71 1018.3
20260902134533 29 302 1.6 6.4 0.00 0.00 0.00 74 1018.2
20260902133028 28 252 1.6 3.2 0.00 0.00 0.00 78 1018.2
20260902131523 27 360 0.0 1.6 0.00 0.00 0.00 81 1018.0
20260902130030 25 331 0.0 1.6 0.00 0.00 0.00 85 1018.2
20260902124517 25 293 0.0 1.6 0.00 0.00 0.00 87 1018.1
20260902123025 23 251 0.0 3.2 0.00 0.00 0.00 89 1018.2
20260902121507 22 331 0.0 1.6 0.00 0.00 0.00 90 1018.0
20260902120012 22 331 0.0 1.6 0.00 0.00 0.00 91 1018.1
20260902114513 21 331 0.0 1.6 0.00 0.00 0.00 91 1017.9
20260902113004 21 338 0.0 1.6 0.00 0.00 0.00 91 1017.8
20260902111502 21 248 0.0 1.6 0.00 0.00 0.00 91 1017.5
20260902110105 21 317 0.0 1.6 0.00 0.00 0.00 90 1017.5
20260902104601 21 324 0.0 0.0 0.00 0.00 0.00 91 1017.4
20260902103105 22 324 0.0 1.6 0.00 0.00 0.00 90 1017.6